Year,Month,Day,Hour,Minute,Value (Times are PST for temperature in C)
2017,05,20,00,00,14.10
2017,05,20,00,01,14.10
2017,05,20,00,02,14.00
2017,05,20,00,03,14.00
2017,05,20,00,04,13.90
2017,05,20,00,05,13.90
2017,05,20,00,06,13.90
2017,05,20,00,07,13.80
2017,05,20,00,08,13.80
2017,05,20,00,09,13.80
2017,05,20,00,10,13.80
2017,05,20,00,11,13.80
2017,05,20,00,12,13.70
2017,05,20,00,13,13.70
2017,05,20,00,14,13.60
2017,05,20,00,15,13.60
2017,05,20,00,16,13.60
2017,05,20,00,17,13.60
2017,05,20,00,18,13.50
2017,05,20,00,19,13.50
2017,05,20,00,20,13.50
2017,05,20,00,21,13.50
2017,05,20,00,22,13.50
2017,05,20,00,23,13.50
2017,05,20,00,24,13.50
2017,05,20,00,25,13.50
2017,05,20,00,26,13.50
2017,05,20,00,27,13.50
2017,05,20,00,28,13.50
2017,05,20,00,29,13.60
2017,05,20,00,30,13.60
2017,05,20,00,31,13.50
2017,05,20,00,32,13.50
2017,05,20,00,33,13.40
2017,05,20,00,34,13.40
2017,05,20,00,35,13.40
2017,05,20,00,36,13.30
2017,05,20,00,37,13.30
2017,05,20,00,38,13.30
2017,05,20,00,39,13.30
2017,05,20,00,40,13.30
2017,05,20,00,41,13.30
2017,05,20,00,42,13.30
2017,05,20,00,43,13.30
2017,05,20,00,44,13.30
2017,05,20,00,45,13.30
2017,05,20,00,46,13.30
2017,05,20,00,47,13.30
2017,05,20,00,48,13.30
2017,05,20,00,49,13.30
2017,05,20,00,50,13.30
2017,05,20,00,51,13.30
2017,05,20,00,52,13.30
2017,05,20,00,53,13.30
2017,05,20,00,54,13.30
2017,05,20,00,55,13.30
2017,05,20,00,56,13.30
2017,05,20,00,57,13.30
2017,05,20,00,58,13.30
2017,05,20,00,59,13.30
2017,05,20,01,00,13.30
2017,05,20,01,01,13.30
2017,05,20,01,02,13.40
2017,05,20,01,03,13.40
2017,05,20,01,04,13.40
2017,05,20,01,05,13.30
2017,05,20,01,06,13.40
2017,05,20,01,07,13.30
2017,05,20,01,08,13.30
2017,05,20,01,09,13.40
2017,05,20,01,10,13.40
2017,05,20,01,11,13.40
2017,05,20,01,12,13.30
2017,05,20,01,13,13.30
2017,05,20,01,14,13.30
2017,05,20,01,15,13.30
2017,05,20,01,16,13.30
2017,05,20,01,17,13.30
2017,05,20,01,18,13.30
2017,05,20,01,19,13.20
2017,05,20,01,20,13.20
2017,05,20,01,21,13.20
2017,05,20,01,22,13.20
2017,05,20,01,23,13.20
2017,05,20,01,24,13.20
2017,05,20,01,25,13.20
2017,05,20,01,26,13.20
2017,05,20,01,27,13.20
2017,05,20,01,28,13.10
2017,05,20,01,29,13.10
2017,05,20,01,30,13.10
2017,05,20,01,31,13.10
2017,05,20,01,32,13.10
2017,05,20,01,33,13.00
2017,05,20,01,34,13.00
2017,05,20,01,35,12.90
2017,05,20,01,36,12.90
2017,05,20,01,37,12.90
2017,05,20,01,38,12.90
2017,05,20,01,39,12.80
2017,05,20,01,40,12.80
2017,05,20,01,41,12.80
2017,05,20,01,42,12.80
2017,05,20,01,43,12.80
2017,05,20,01,44,12.80
2017,05,20,01,45,12.80
2017,05,20,01,46,12.80
2017,05,20,01,47,12.80
2017,05,20,01,48,12.80
2017,05,20,01,49,12.80
2017,05,20,01,50,12.80
2017,05,20,01,51,12.80
2017,05,20,01,52,12.80
2017,05,20,01,53,12.80
2017,05,20,01,54,12.80
2017,05,20,01,55,12.80
2017,05,20,01,56,12.80
2017,05,20,01,57,12.80
2017,05,20,01,58,12.80
2017,05,20,01,59,12.80
2017,05,20,02,00,12.80
2017,05,20,02,01,12.80
2017,05,20,02,02,12.80
2017,05,20,02,03,12.80
2017,05,20,02,04,12.80
2017,05,20,02,05,12.80
2017,05,20,02,06,12.70
2017,05,20,02,07,12.70
2017,05,20,02,08,12.70
2017,05,20,02,09,12.70
2017,05,20,02,10,12.70
2017,05,20,02,11,12.70
2017,05,20,02,12,12.70
2017,05,20,02,13,12.70
2017,05,20,02,14,12.70
2017,05,20,02,15,12.70
2017,05,20,02,16,12.70
2017,05,20,02,17,12.60
2017,05,20,02,18,12.60
2017,05,20,02,19,12.60
2017,05,20,02,20,12.60
2017,05,20,02,21,12.60
2017,05,20,02,22,12.60
2017,05,20,02,23,12.60
2017,05,20,02,24,12.60
2017,05,20,02,25,12.60
2017,05,20,02,26,12.60
2017,05,20,02,27,12.60
2017,05,20,02,28,12.60
2017,05,20,02,29,12.60
2017,05,20,02,30,12.60
2017,05,20,02,31,12.60
2017,05,20,02,32,12.60
2017,05,20,02,33,12.50
2017,05,20,02,34,12.50
2017,05,20,02,35,12.50
2017,05,20,02,36,12.50
2017,05,20,02,37,12.50
2017,05,20,02,38,12.50
2017,05,20,02,39,12.40
2017,05,20,02,40,12.40
2017,05,20,02,41,12.40
2017,05,20,02,42,12.40
2017,05,20,02,43,12.40
2017,05,20,02,44,12.40
2017,05,20,02,45,12.40
2017,05,20,02,46,12.40
2017,05,20,02,47,12.40
2017,05,20,02,48,12.40
2017,05,20,02,49,12.40
2017,05,20,02,50,12.30
2017,05,20,02,51,12.30
2017,05,20,02,52,12.30
2017,05,20,02,53,12.20
2017,05,20,02,54,12.20
2017,05,20,02,55,12.10
2017,05,20,02,56,12.00
2017,05,20,02,57,12.00
2017,05,20,02,58,11.90
2017,05,20,02,59,11.90
2017,05,20,03,00,11.90
2017,05,20,03,01,11.80
2017,05,20,03,02,11.80
2017,05,20,03,03,11.80
2017,05,20,03,04,11.80
2017,05,20,03,05,11.80
2017,05,20,03,06,11.80
2017,05,20,03,07,11.70
2017,05,20,03,08,11.70
2017,05,20,03,09,11.70
2017,05,20,03,10,11.70
2017,05,20,03,11,11.70
2017,05,20,03,12,11.70
2017,05,20,03,13,11.70
2017,05,20,03,14,11.70
2017,05,20,03,15,11.70
2017,05,20,03,16,11.70
2017,05,20,03,17,11.70
2017,05,20,03,18,11.70
2017,05,20,03,19,11.70
2017,05,20,03,20,11.70
2017,05,20,03,21,11.70
2017,05,20,03,22,11.70
2017,05,20,03,23,11.70
2017,05,20,03,24,11.80
2017,05,20,03,25,11.80
2017,05,20,03,26,11.80
2017,05,20,03,27,11.80
2017,05,20,03,28,11.80
2017,05,20,03,29,11.80
2017,05,20,03,30,11.80
2017,05,20,03,31,11.80
2017,05,20,03,32,11.80
2017,05,20,03,33,11.80
2017,05,20,03,34,11.80
2017,05,20,03,35,11.90
2017,05,20,03,36,11.90
2017,05,20,03,37,11.90
2017,05,20,03,38,11.90
2017,05,20,03,39,11.90
2017,05,20,03,40,11.90
2017,05,20,03,41,11.90
2017,05,20,03,42,11.90
2017,05,20,03,43,11.90
2017,05,20,03,44,11.90
2017,05,20,03,45,11.90
2017,05,20,03,46,11.90
2017,05,20,03,47,11.90
2017,05,20,03,48,11.90
2017,05,20,03,49,11.90
2017,05,20,03,50,11.90
2017,05,20,03,51,11.90
2017,05,20,03,52,11.90
2017,05,20,03,53,11.80
2017,05,20,03,54,11.80
2017,05,20,03,55,11.80
2017,05,20,03,56,11.80
2017,05,20,03,57,11.70
2017,05,20,03,58,11.70
2017,05,20,03,59,11.70
2017,05,20,04,00,11.70
2017,05,20,04,01,11.60
2017,05,20,04,02,11.60
2017,05,20,04,03,11.60
2017,05,20,04,04,11.60
2017,05,20,04,05,11.60
2017,05,20,04,06,11.60
2017,05,20,04,07,11.60
2017,05,20,04,08,11.60
2017,05,20,04,09,11.60
2017,05,20,04,10,11.60
2017,05,20,04,11,11.70
2017,05,20,04,12,11.70
2017,05,20,04,13,11.70
2017,05,20,04,14,11.70
2017,05,20,04,15,11.70
2017,05,20,04,16,11.70
2017,05,20,04,17,11.70
2017,05,20,04,18,11.70
2017,05,20,04,19,11.80
2017,05,20,04,20,11.80
2017,05,20,04,21,11.80
2017,05,20,04,22,11.80
2017,05,20,04,23,11.80
2017,05,20,04,24,11.80
2017,05,20,04,25,11.80
2017,05,20,04,26,11.80
2017,05,20,04,27,11.80
2017,05,20,04,28,11.80
2017,05,20,04,29,11.80
2017,05,20,04,30,11.80
2017,05,20,04,31,11.80
2017,05,20,04,32,11.90
2017,05,20,04,33,11.80
2017,05,20,04,34,11.80
2017,05,20,04,35,11.80
2017,05,20,04,36,11.80
2017,05,20,04,37,11.90
2017,05,20,04,38,11.90
2017,05,20,04,39,11.90
2017,05,20,04,40,11.90
2017,05,20,04,41,11.90
2017,05,20,04,42,11.90
2017,05,20,04,43,11.90
2017,05,20,04,44,11.90
2017,05,20,04,45,11.90
2017,05,20,04,46,11.90
2017,05,20,04,47,11.90
2017,05,20,04,48,11.90
2017,05,20,04,49,11.90
2017,05,20,04,50,11.90
2017,05,20,04,51,11.90
2017,05,20,04,52,11.90
2017,05,20,04,53,11.90
2017,05,20,04,54,11.90
2017,05,20,04,55,11.80
2017,05,20,04,56,11.80
2017,05,20,04,57,11.80
2017,05,20,04,58,11.80
2017,05,20,04,59,11.80
2017,05,20,05,00,11.80
2017,05,20,05,01,11.80
2017,05,20,05,02,11.80
2017,05,20,05,03,11.80
2017,05,20,05,04,11.70
2017,05,20,05,05,11.70
2017,05,20,05,06,11.70
2017,05,20,05,07,11.70
2017,05,20,05,08,11.70
2017,05,20,05,09,11.70
2017,05,20,05,10,11.70
2017,05,20,05,11,11.70
2017,05,20,05,12,11.70
2017,05,20,05,13,11.70
2017,05,20,05,14,11.70
2017,05,20,05,15,11.70
2017,05,20,05,16,11.70
2017,05,20,05,17,11.70
2017,05,20,05,18,11.70
2017,05,20,05,19,11.70
2017,05,20,05,20,11.70
2017,05,20,05,21,11.70
2017,05,20,05,22,11.70
2017,05,20,05,23,11.70
2017,05,20,05,24,11.70
2017,05,20,05,25,11.70
2017,05,20,05,26,11.60
2017,05,20,05,27,11.60
2017,05,20,05,28,11.60
2017,05,20,05,29,11.60
2017,05,20,05,30,11.60
2017,05,20,05,31,11.60
2017,05,20,05,32,11.60
2017,05,20,05,33,11.60
2017,05,20,05,34,11.60
2017,05,20,05,35,11.60
2017,05,20,05,36,11.60
2017,05,20,05,37,11.60
2017,05,20,05,38,11.60
2017,05,20,05,39,11.60
2017,05,20,05,40,11.60
2017,05,20,05,41,11.60
2017,05,20,05,42,11.60
2017,05,20,05,43,11.60
2017,05,20,05,44,11.50
2017,05,20,05,45,11.50
2017,05,20,05,46,11.50
2017,05,20,05,47,11.50
2017,05,20,05,48,11.50
2017,05,20,05,49,11.50
2017,05,20,05,50,11.50
2017,05,20,05,51,11.50
2017,05,20,05,52,11.50
2017,05,20,05,53,11.50
2017,05,20,05,54,11.50
2017,05,20,05,55,11.40
2017,05,20,05,56,11.50
2017,05,20,05,57,11.40
2017,05,20,05,58,11.40
2017,05,20,05,59,11.40
2017,05,20,06,00,11.40
2017,05,20,06,01,11.40
2017,05,20,06,02,11.40
2017,05,20,06,03,11.40
2017,05,20,06,04,11.40
2017,05,20,06,05,11.40
2017,05,20,06,06,11.40
2017,05,20,06,07,11.40
2017,05,20,06,08,11.40
2017,05,20,06,09,11.50
2017,05,20,06,10,11.50
2017,05,20,06,11,11.60
2017,05,20,06,12,11.60
2017,05,20,06,13,11.60
2017,05,20,06,14,11.60
2017,05,20,06,15,11.70
2017,05,20,06,16,11.70
2017,05,20,06,17,11.80
2017,05,20,06,18,11.80
2017,05,20,06,19,11.80
2017,05,20,06,20,11.80
2017,05,20,06,21,11.80
2017,05,20,06,22,11.90
2017,05,20,06,23,11.90
2017,05,20,06,24,11.90
2017,05,20,06,25,11.90
2017,05,20,06,26,12.00
2017,05,20,06,27,12.00
2017,05,20,06,28,12.00
2017,05,20,06,29,12.10
2017,05,20,06,30,12.10
2017,05,20,06,31,12.10
2017,05,20,06,32,12.10
2017,05,20,06,33,12.10
2017,05,20,06,34,12.10
2017,05,20,06,35,12.10
2017,05,20,06,36,12.10
2017,05,20,06,37,12.10
2017,05,20,06,38,12.10
2017,05,20,06,39,12.10
2017,05,20,06,40,12.10
2017,05,20,06,41,12.10
2017,05,20,06,42,12.10
2017,05,20,06,43,12.10
2017,05,20,06,44,12.10
2017,05,20,06,45,12.10
2017,05,20,06,46,12.10
2017,05,20,06,47,12.10
2017,05,20,06,48,12.10
2017,05,20,06,49,12.10
2017,05,20,06,50,12.10
2017,05,20,06,51,12.10
2017,05,20,06,52,12.10
2017,05,20,06,53,12.10
2017,05,20,06,54,12.10
2017,05,20,06,55,12.20
2017,05,20,06,56,12.20
2017,05,20,06,57,12.20
2017,05,20,06,58,12.20
2017,05,20,06,59,12.20
2017,05,20,07,00,12.20
2017,05,20,07,01,12.30
2017,05,20,07,02,12.30
2017,05,20,07,03,12.30
2017,05,20,07,04,12.30
2017,05,20,07,05,12.30
2017,05,20,07,06,12.40
2017,05,20,07,07,12.40
2017,05,20,07,08,12.40
2017,05,20,07,09,12.40
2017,05,20,07,10,12.40
2017,05,20,07,11,12.40
2017,05,20,07,12,12.40
2017,05,20,07,13,12.40
2017,05,20,07,14,12.40
2017,05,20,07,15,12.40
2017,05,20,07,16,12.40
2017,05,20,07,17,12.40
2017,05,20,07,18,12.40
2017,05,20,07,19,12.40
2017,05,20,07,20,12.40
2017,05,20,07,21,12.40
2017,05,20,07,22,12.40
2017,05,20,07,23,12.40
2017,05,20,07,24,12.50
2017,05,20,07,25,12.50
2017,05,20,07,26,12.60
2017,05,20,07,27,12.60
2017,05,20,07,28,12.60
2017,05,20,07,29,12.70
2017,05,20,07,30,12.80
2017,05,20,07,31,12.80
2017,05,20,07,32,12.80
2017,05,20,07,33,12.90
2017,05,20,07,34,12.90
2017,05,20,07,35,12.90
2017,05,20,07,36,13.00
2017,05,20,07,37,13.00
2017,05,20,07,38,13.10
2017,05,20,07,39,13.10
2017,05,20,07,40,13.10
2017,05,20,07,41,13.10
2017,05,20,07,42,13.10
2017,05,20,07,43,13.00
2017,05,20,07,44,13.00
2017,05,20,07,45,13.00
2017,05,20,07,46,12.90
2017,05,20,07,47,12.90
2017,05,20,07,48,12.90
2017,05,20,07,49,12.80
2017,05,20,07,50,12.80
2017,05,20,07,51,12.80
2017,05,20,07,52,12.80
2017,05,20,07,53,12.90
2017,05,20,07,54,12.90
2017,05,20,07,55,13.00
2017,05,20,07,56,13.00
2017,05,20,07,57,13.00
2017,05,20,07,58,13.00
2017,05,20,07,59,13.10
2017,05,20,08,00,13.00
2017,05,20,08,01,13.10
2017,05,20,08,02,13.10
2017,05,20,08,03,13.10
2017,05,20,08,04,13.10
2017,05,20,08,05,13.10
2017,05,20,08,06,13.20
2017,05,20,08,07,13.20
2017,05,20,08,08,13.20
2017,05,20,08,09,13.20
2017,05,20,08,10,13.20
2017,05,20,08,11,13.20
2017,05,20,08,12,13.20
2017,05,20,08,13,13.20
2017,05,20,08,14,13.20
2017,05,20,08,15,13.30
2017,05,20,08,16,13.30
2017,05,20,08,17,13.30
2017,05,20,08,18,13.30
2017,05,20,08,19,13.30
2017,05,20,08,20,13.30
2017,05,20,08,21,13.30
2017,05,20,08,22,13.40
2017,05,20,08,23,13.40
2017,05,20,08,24,13.40
2017,05,20,08,25,13.40
2017,05,20,08,26,13.40
2017,05,20,08,27,13.40
2017,05,20,08,28,13.40
2017,05,20,08,29,13.40
2017,05,20,08,30,13.40
2017,05,20,08,31,13.40
2017,05,20,08,32,13.40
2017,05,20,08,33,13.40
2017,05,20,08,34,13.40
2017,05,20,08,35,13.40
2017,05,20,08,36,13.40
2017,05,20,08,37,13.40
2017,05,20,08,38,13.40
2017,05,20,08,39,13.40
2017,05,20,08,40,13.40
2017,05,20,08,41,13.50
2017,05,20,08,42,13.50
2017,05,20,08,43,13.60
2017,05,20,08,44,13.60
2017,05,20,08,45,13.70
2017,05,20,08,46,13.70
2017,05,20,08,47,13.80
2017,05,20,08,48,13.90
2017,05,20,08,49,14.00
2017,05,20,08,50,14.10
2017,05,20,08,51,14.20
2017,05,20,08,52,14.20
2017,05,20,08,53,14.30
2017,05,20,08,54,14.30
2017,05,20,08,55,14.40
2017,05,20,08,56,14.50
2017,05,20,08,57,14.50
2017,05,20,08,58,14.60
2017,05,20,08,59,14.60
2017,05,20,09,00,14.60
2017,05,20,09,01,14.60
2017,05,20,09,02,14.60
2017,05,20,09,03,14.50
2017,05,20,09,04,14.50
2017,05,20,09,05,14.40
2017,05,20,09,06,14.40
2017,05,20,09,07,14.30
2017,05,20,09,08,14.30
2017,05,20,09,09,14.30
2017,05,20,09,10,14.30
2017,05,20,09,11,14.30
2017,05,20,09,12,14.30
2017,05,20,09,13,14.30
2017,05,20,09,14,14.30
2017,05,20,09,15,14.30
2017,05,20,09,16,14.30
2017,05,20,09,17,14.30
2017,05,20,09,18,14.40
2017,05,20,09,19,14.40
2017,05,20,09,20,14.30
2017,05,20,09,21,14.30
2017,05,20,09,22,14.40
2017,05,20,09,23,14.30
2017,05,20,09,24,14.30
2017,05,20,09,25,14.30
2017,05,20,09,26,14.30
2017,05,20,09,27,14.40
2017,05,20,09,28,14.40
2017,05,20,09,29,14.50
2017,05,20,09,30,14.60
2017,05,20,09,31,14.60
2017,05,20,09,32,14.60
2017,05,20,09,33,14.60
2017,05,20,09,34,14.70
2017,05,20,09,35,14.70
2017,05,20,09,36,14.70
2017,05,20,09,37,14.80
2017,05,20,09,38,14.90
2017,05,20,09,39,14.90
2017,05,20,09,40,15.00
2017,05,20,09,41,15.10
2017,05,20,09,42,15.10
2017,05,20,09,43,15.10
2017,05,20,09,44,15.10
2017,05,20,09,45,15.20
2017,05,20,09,46,15.30
2017,05,20,09,47,15.30
2017,05,20,09,48,15.30
2017,05,20,09,49,15.30
2017,05,20,09,50,15.20
2017,05,20,09,51,15.20
2017,05,20,09,52,15.20
2017,05,20,09,53,15.30
2017,05,20,09,54,15.30
2017,05,20,09,55,15.30
2017,05,20,09,56,15.30
2017,05,20,09,57,15.30
2017,05,20,09,58,15.40
2017,05,20,09,59,15.40
2017,05,20,10,00,15.40
2017,05,20,10,01,15.40
2017,05,20,10,02,15.30
2017,05,20,10,03,15.30
2017,05,20,10,04,15.30
2017,05,20,10,05,15.30
2017,05,20,10,06,15.30
2017,05,20,10,07,15.30
2017,05,20,10,08,15.40
2017,05,20,10,09,15.50
2017,05,20,10,10,15.60
2017,05,20,10,11,15.70
2017,05,20,10,12,15.80
2017,05,20,10,13,15.90
2017,05,20,10,14,16.00
2017,05,20,10,15,16.10
2017,05,20,10,16,16.10
2017,05,20,10,17,16.10
2017,05,20,10,18,16.20
2017,05,20,10,19,16.30
2017,05,20,10,20,16.30
2017,05,20,10,21,16.40
2017,05,20,10,22,16.40
2017,05,20,10,23,16.50
2017,05,20,10,24,16.50
2017,05,20,10,25,16.60
2017,05,20,10,26,16.60
2017,05,20,10,27,16.60
2017,05,20,10,28,16.70
2017,05,20,10,29,16.70
2017,05,20,10,30,16.70
2017,05,20,10,31,16.70
2017,05,20,10,32,16.70
2017,05,20,10,33,16.60
2017,05,20,10,34,16.60
2017,05,20,10,35,16.70
2017,05,20,10,36,16.70
2017,05,20,10,37,16.80
2017,05,20,10,38,16.80
2017,05,20,10,39,16.90
2017,05,20,10,40,16.90
2017,05,20,10,41,16.90
2017,05,20,10,42,16.90
2017,05,20,10,43,16.90
2017,05,20,10,44,16.90
2017,05,20,10,45,16.90
2017,05,20,10,46,17.00
2017,05,20,10,47,17.00
2017,05,20,10,48,17.00
2017,05,20,10,49,17.00
2017,05,20,10,50,17.10
2017,05,20,10,51,17.10
2017,05,20,10,52,17.10
2017,05,20,10,53,17.20
2017,05,20,10,54,17.20
2017,05,20,10,55,17.20
2017,05,20,10,56,17.20
2017,05,20,10,57,17.10
2017,05,20,10,58,17.00
2017,05,20,10,59,16.90
2017,05,20,11,00,16.80
2017,05,20,11,01,16.70
2017,05,20,11,02,16.70
2017,05,20,11,03,16.70
2017,05,20,11,04,16.70
2017,05,20,11,05,16.70
2017,05,20,11,06,16.70
2017,05,20,11,07,16.80
2017,05,20,11,08,16.80
2017,05,20,11,09,16.80
2017,05,20,11,10,16.80
2017,05,20,11,11,16.80
2017,05,20,11,12,16.80
2017,05,20,11,13,16.90
2017,05,20,11,14,16.80
2017,05,20,11,15,16.80
2017,05,20,11,16,16.80
2017,05,20,11,17,16.80
2017,05,20,11,18,16.80
2017,05,20,11,19,16.80
2017,05,20,11,20,16.80
2017,05,20,11,21,16.80
2017,05,20,11,22,16.70
2017,05,20,11,23,16.80
2017,05,20,11,24,16.80
2017,05,20,11,25,16.80
2017,05,20,11,26,16.80
2017,05,20,11,27,16.80
2017,05,20,11,28,16.80
2017,05,20,11,29,16.90
2017,05,20,11,30,16.90
2017,05,20,11,31,16.90
2017,05,20,11,32,16.80
2017,05,20,11,33,16.80
2017,05,20,11,34,16.70
2017,05,20,11,35,16.70
2017,05,20,11,36,16.70
2017,05,20,11,37,16.70
2017,05,20,11,38,16.70
2017,05,20,11,39,16.70
2017,05,20,11,40,16.70
2017,05,20,11,41,16.80
2017,05,20,11,42,16.80
2017,05,20,11,43,16.80
2017,05,20,11,44,16.80
2017,05,20,11,45,16.80
2017,05,20,11,46,16.70
2017,05,20,11,47,16.60
2017,05,20,11,48,16.50
2017,05,20,11,49,16.50
2017,05,20,11,50,16.40
2017,05,20,11,51,16.40
2017,05,20,11,52,16.40
2017,05,20,11,53,16.40
2017,05,20,11,54,16.40
2017,05,20,11,55,16.50
2017,05,20,11,56,16.60
2017,05,20,11,57,16.60
2017,05,20,11,58,16.70
2017,05,20,11,59,16.70
2017,05,20,12,00,16.70
2017,05,20,12,01,16.70
2017,05,20,12,02,16.60
2017,05,20,12,03,16.60
2017,05,20,12,04,16.70
2017,05,20,12,05,16.70
2017,05,20,12,06,16.70
2017,05,20,12,07,16.70
2017,05,20,12,08,16.70
2017,05,20,12,09,16.70
2017,05,20,12,10,16.60
2017,05,20,12,11,16.50
2017,05,20,12,12,16.50
2017,05,20,12,13,16.50
2017,05,20,12,14,16.50
2017,05,20,12,15,16.60
2017,05,20,12,16,16.70
2017,05,20,12,17,16.70
2017,05,20,12,18,16.80
2017,05,20,12,19,16.80
2017,05,20,12,20,16.80
2017,05,20,12,21,16.80
2017,05,20,12,22,16.80
2017,05,20,12,23,16.70
2017,05,20,12,24,16.70
2017,05,20,12,25,16.70
2017,05,20,12,26,16.70
2017,05,20,12,27,16.70
2017,05,20,12,28,16.80
2017,05,20,12,29,16.80
2017,05,20,12,30,16.80
2017,05,20,12,31,16.80
2017,05,20,12,32,16.80
2017,05,20,12,33,16.80
2017,05,20,12,34,16.80
2017,05,20,12,35,16.80
2017,05,20,12,36,16.80
2017,05,20,12,37,16.80
2017,05,20,12,38,16.80
2017,05,20,12,39,16.80
2017,05,20,12,40,16.70
2017,05,20,12,41,16.70
2017,05,20,12,42,16.70
2017,05,20,12,43,16.60
2017,05,20,12,44,16.50
2017,05,20,12,45,16.50
2017,05,20,12,46,16.40
2017,05,20,12,47,16.40
2017,05,20,12,48,16.40
2017,05,20,12,49,16.40
2017,05,20,12,50,16.40
2017,05,20,12,51,16.40
2017,05,20,12,52,16.40
2017,05,20,12,53,16.40
2017,05,20,12,54,16.30
2017,05,20,12,55,16.30
2017,05,20,12,56,16.30
2017,05,20,12,57,16.30
2017,05,20,12,58,16.40
2017,05,20,12,59,16.40
2017,05,20,13,00,16.30
2017,05,20,13,01,16.30
2017,05,20,13,02,16.20
2017,05,20,13,03,16.20
2017,05,20,13,04,16.20
2017,05,20,13,05,16.20
2017,05,20,13,06,16.20
2017,05,20,13,07,16.10
2017,05,20,13,08,16.20
2017,05,20,13,09,16.20
2017,05,20,13,10,16.20
2017,05,20,13,11,16.20
2017,05,20,13,12,16.20
2017,05,20,13,13,16.20
2017,05,20,13,14,16.20
2017,05,20,13,15,16.20
2017,05,20,13,16,16.20
2017,05,20,13,17,16.30
2017,05,20,13,18,16.30
2017,05,20,13,19,16.40
2017,05,20,13,20,16.50
2017,05,20,13,21,16.60
2017,05,20,13,22,16.70
2017,05,20,13,23,16.60
2017,05,20,13,24,16.50
2017,05,20,13,25,16.60
2017,05,20,13,26,16.60
2017,05,20,13,27,16.50
2017,05,20,13,28,16.50
2017,05,20,13,29,16.50
2017,05,20,13,30,16.40
2017,05,20,13,31,16.40
2017,05,20,13,32,16.30
2017,05,20,13,33,16.30
2017,05,20,13,34,16.30
2017,05,20,13,35,16.20
2017,05,20,13,36,16.20
2017,05,20,13,37,16.20
2017,05,20,13,38,16.20
2017,05,20,13,39,16.30
2017,05,20,13,40,16.40
2017,05,20,13,41,16.50
2017,05,20,13,42,16.60
2017,05,20,13,43,16.60
2017,05,20,13,44,16.50
2017,05,20,13,45,16.50
2017,05,20,13,46,16.40
2017,05,20,13,47,16.40
2017,05,20,13,48,16.40
2017,05,20,13,49,16.40
2017,05,20,13,50,16.40
2017,05,20,13,51,16.40
2017,05,20,13,52,16.40
2017,05,20,13,53,16.30
2017,05,20,13,54,16.40
2017,05,20,13,55,16.40
2017,05,20,13,56,16.50
2017,05,20,13,57,16.60
2017,05,20,13,58,16.70
2017,05,20,13,59,16.70
2017,05,20,14,00,16.70
2017,05,20,14,01,16.70
2017,05,20,14,02,16.70
2017,05,20,14,03,16.70
2017,05,20,14,04,16.70
2017,05,20,14,05,16.80
2017,05,20,14,06,16.80
2017,05,20,14,07,16.80
2017,05,20,14,08,16.80
2017,05,20,14,09,16.80
2017,05,20,14,10,16.80
2017,05,20,14,11,16.80
2017,05,20,14,12,16.90
2017,05,20,14,13,16.90
2017,05,20,14,14,17.00
2017,05,20,14,15,17.10
2017,05,20,14,16,17.10
2017,05,20,14,17,17.10
2017,05,20,14,18,17.10
2017,05,20,14,19,17.10
2017,05,20,14,20,17.00
2017,05,20,14,21,17.00
2017,05,20,14,22,17.00
2017,05,20,14,23,17.10
2017,05,20,14,24,17.10
2017,05,20,14,25,17.10
2017,05,20,14,26,17.10
2017,05,20,14,27,17.10
2017,05,20,14,28,17.10
2017,05,20,14,29,17.10
2017,05,20,14,30,17.10
2017,05,20,14,31,17.20
2017,05,20,14,32,17.20
2017,05,20,14,33,17.20
2017,05,20,14,34,17.20
2017,05,20,14,35,17.20
2017,05,20,14,36,17.20
2017,05,20,14,37,17.30
2017,05,20,14,38,17.30
2017,05,20,14,39,17.30
2017,05,20,14,40,17.40
2017,05,20,14,41,17.50
2017,05,20,14,42,17.60
2017,05,20,14,43,17.60
2017,05,20,14,44,17.60
2017,05,20,14,45,17.60
2017,05,20,14,46,17.50
2017,05,20,14,47,17.40
2017,05,20,14,48,17.30
2017,05,20,14,49,17.20
2017,05,20,14,50,17.20
2017,05,20,14,51,17.10
2017,05,20,14,52,17.00
2017,05,20,14,53,16.90
2017,05,20,14,54,16.90
2017,05,20,14,55,16.90
2017,05,20,14,56,17.00
2017,05,20,14,57,17.00
2017,05,20,14,58,16.90
2017,05,20,14,59,16.80
2017,05,20,15,00,16.80
2017,05,20,15,01,16.80
2017,05,20,15,02,17.00
2017,05,20,15,03,17.10
2017,05,20,15,04,17.10
2017,05,20,15,05,17.20
2017,05,20,15,06,17.20
2017,05,20,15,07,17.20
2017,05,20,15,08,17.10
2017,05,20,15,09,17.10
2017,05,20,15,10,17.00
2017,05,20,15,11,16.90
2017,05,20,15,12,16.80
2017,05,20,15,13,16.80
2017,05,20,15,14,16.70
2017,05,20,15,15,16.80
2017,05,20,15,16,16.80
2017,05,20,15,17,16.90
2017,05,20,15,18,16.90
2017,05,20,15,19,16.90
2017,05,20,15,20,16.90
2017,05,20,15,21,16.90
2017,05,20,15,22,16.90
2017,05,20,15,23,16.90
2017,05,20,15,24,17.00
2017,05,20,15,25,17.10
2017,05,20,15,26,17.20
2017,05,20,15,27,17.30
2017,05,20,15,28,17.40
2017,05,20,15,29,17.50
2017,05,20,15,30,17.50
2017,05,20,15,31,17.50
2017,05,20,15,32,17.40
2017,05,20,15,33,17.40
2017,05,20,15,34,17.50
2017,05,20,15,35,17.50
2017,05,20,15,36,17.60
2017,05,20,15,37,17.50
2017,05,20,15,38,17.50
2017,05,20,15,39,17.50
2017,05,20,15,40,17.50
2017,05,20,15,41,17.60
2017,05,20,15,42,17.70
2017,05,20,15,43,17.80
2017,05,20,15,44,17.90
2017,05,20,15,45,17.90
2017,05,20,15,46,17.90
2017,05,20,15,47,17.90
2017,05,20,15,48,17.90
2017,05,20,15,49,18.00
2017,05,20,15,50,18.10
2017,05,20,15,51,18.20
2017,05,20,15,52,18.20
2017,05,20,15,53,18.20
2017,05,20,15,54,18.20
2017,05,20,15,55,18.10
2017,05,20,15,56,18.10
2017,05,20,15,57,18.10
2017,05,20,15,58,18.20
2017,05,20,15,59,18.30
2017,05,20,16,00,18.40
2017,05,20,16,01,18.40
2017,05,20,16,02,18.40
2017,05,20,16,03,18.40
2017,05,20,16,04,18.40
2017,05,20,16,05,18.40
2017,05,20,16,06,18.50
2017,05,20,16,07,18.50
2017,05,20,16,08,18.60
2017,05,20,16,09,18.60
2017,05,20,16,10,18.70
2017,05,20,16,11,18.80
2017,05,20,16,12,18.80
2017,05,20,16,13,18.90
2017,05,20,16,14,18.90
2017,05,20,16,15,18.90
2017,05,20,16,16,19.00
2017,05,20,16,17,19.10
2017,05,20,16,18,19.20
2017,05,20,16,19,19.20
2017,05,20,16,20,19.30
2017,05,20,16,21,19.30
2017,05,20,16,22,19.30
2017,05,20,16,23,19.30
2017,05,20,16,24,19.40
2017,05,20,16,25,19.50
2017,05,20,16,26,19.60
2017,05,20,16,27,19.70
2017,05,20,16,28,19.60
2017,05,20,16,29,19.60
2017,05,20,16,30,19.60
2017,05,20,16,31,19.60
2017,05,20,16,32,19.50
2017,05,20,16,33,19.40
2017,05,20,16,34,19.30
2017,05,20,16,35,19.20
2017,05,20,16,36,19.10
2017,05,20,16,37,19.00
2017,05,20,16,38,19.00
2017,05,20,16,39,18.90
2017,05,20,16,40,18.90
2017,05,20,16,41,18.90
2017,05,20,16,42,18.90
2017,05,20,16,43,18.90
2017,05,20,16,44,18.80
2017,05,20,16,45,18.80
2017,05,20,16,46,18.80
2017,05,20,16,47,18.90
2017,05,20,16,48,18.90
2017,05,20,16,49,18.90
2017,05,20,16,50,19.00
2017,05,20,16,51,19.00
2017,05,20,16,52,19.10
2017,05,20,16,53,19.10
2017,05,20,16,54,19.10
2017,05,20,16,55,19.10
2017,05,20,16,56,19.20
2017,05,20,16,57,19.20
2017,05,20,16,58,19.20
2017,05,20,16,59,19.20
2017,05,20,17,00,19.20
2017,05,20,17,01,19.20
2017,05,20,17,02,19.20
2017,05,20,17,03,19.20
2017,05,20,17,04,19.20
2017,05,20,17,05,19.20
2017,05,20,17,06,19.10
2017,05,20,17,07,19.10
2017,05,20,17,08,19.10
2017,05,20,17,09,19.20
2017,05,20,17,10,19.20
2017,05,20,17,11,19.30
2017,05,20,17,12,19.30
2017,05,20,17,13,19.30
2017,05,20,17,14,19.40
2017,05,20,17,15,19.40
2017,05,20,17,16,19.50
2017,05,20,17,17,19.60
2017,05,20,17,18,19.60
2017,05,20,17,19,19.60